User: anonymous   Login
Location: PACMO
(41.3967°N, 90.3760°W)
Time: 06:25:36
(UTC-05:00)
Language:

BREEZE-M DEB (TANK) - Orbit

View from above orbital plane
View from above orbital plane
View from above satellite
View from above satellite

Ground track
Ground track

The orbit data is extracted from the following two-line orbital elements,

1 31863U 07032B   18110.79136189  .00000042  00000-0  59737-4 0  9999
2 31863  45.9640  60.3885 4975783 290.1737  24.2648  5.52182299216517
Epoch (UTC): 20 April 2018 18:59:33
Eccentricity: 0.4975783
inclination: 45.9640°
perigee height: 415 km
apogee height: 13871 km
right ascension of ascending node: 60.3885°
argument of perigee: 290.1737°
revolutions per day: 5.52182299
mean anomaly at epoch: 24.2648°
orbit number at epoch: 21651

The dashed part of the orbit path shows where the satellite is in the earth's shadow,  

DLR